LEMUR-2-SLICERS (46500 NORAD) Tracking and Keplerian Element Data

This shows tracking and keplerian element data for the satellite.

Feedback or suggestion? Click here.




ElementValue
Catalog46500
NameLEMUR-2-SLICERS
Epoch Orbit477
Epoch Day304.78606446
Epoch Year2020
RAAN237.9166
Inclination97.6656
Eccentricity0.0012275
Argument of Perigee136.2652
Mean Anonmoly223.9548
Mean Motion15.02213192
Decay Rate7.69E-06
L11 46500U 20068Q 20304.78606446 .00000769 00000-0 62862-4 0 9991
L22 46500 97.6656 237.9166 0012275 136.2652 223.9548 15.02213192 4779

Live tracking and technical data element details for LEMUR-2-SLICERS (NORAD 46500). LEMUR-2-SLICERS can be tracked NOW for your location showing map with azimuth and elevation plus other details from your city location.

Track the satellite on the map from your city or location and see movement details for azimuth, elevation, latitude, longitude, range, height, and movement on the map or in text.







IsCatalogInMostPopularTable: catalog: 46500, numindb: 7
Update: records affected: 1



GetName: 46500 LEMUR-2-SLICERS

Hit Count: updated at: Sat, 31 Oct 2020 10:50:48 GMT